FW6430 Weather Reports


time (UTC)temp
C
wind
direction
speed
KPH
gust
KPH
rain 1hr
cm
rain 24hr
cm
rain mn
cm
humidity
%
barometer
mb
20260504050749 3 356 0.0 0.0 0.00 0.00 0.00 80 1011.9
20260504050243 2 356 0.0 0.0 0.00 0.00 0.00 79 1012.0
20260504045737 2 356 0.0 0.0 0.00 0.00 0.00 80 1012.0
20260504045231 2 356 0.0 0.0 0.00 0.00 0.00 81 1012.0
20260504044725 2 356 0.0 0.0 0.00 0.00 0.00 83 1012.0
20260504044219 2 356 0.0 0.0 0.00 0.00 0.00 83 1012.0
20260504043713 2 356 0.0 0.0 0.00 0.00 0.00 83 1012.0
20260504043207 2 356 0.0 0.0 0.00 0.00 0.00 83 1012.0
20260504042701 2 356 0.0 0.0 0.00 0.00 0.00 82 1012.0
20260504042155 2 356 0.0 0.0 0.00 0.00 0.00 82 1011.9
20260504041649 1 356 0.0 0.0 0.00 0.00 0.00 82 1011.9
20260504041143 2 356 0.0 0.0 0.00 0.00 0.00 82 1011.9
20260504040637 2 356 0.0 0.0 0.00 0.00 0.00 81 1011.7
20260504040131 2 356 0.0 0.0 0.00 0.00 0.00 81 1011.7
20260504035625 2 356 0.0 0.0 0.00 0.00 0.00 80 1011.7
20260504035119 2 356 0.0 0.0 0.00 0.00 0.00 79 1011.6
20260504034613 2 356 0.0 0.0 0.00 0.00 0.00 78 1011.6
20260504034107 2 356 0.0 0.0 0.00 0.00 0.00 78 1011.5
20260504033601 2 356 0.0 0.0 0.00 0.00 0.00 77 1011.5
20260504033055 2 356 0.0 0.0 0.00 0.00 0.00 76 1011.4
20260504032549 2 356 0.0 0.0 0.00 0.00 0.00 76 1011.4
20260504032043 2 356 0.0 0.0 0.00 0.00 0.00 75 1011.4
20260504031537 3 356 0.0 0.0 0.00 0.00 0.00 75 1011.4
20260504031031 3 356 0.0 0.0 0.00 0.00 0.00 74 1011.3
20260504030525 3 356 0.0 0.0 0.00 0.00 0.00 72 1011.3
20260504030019 3 356 0.0 0.0 0.00 0.00 0.00 72 1011.2
20260504025513 3 356 0.0 0.0 0.00 0.00 0.00 72 1011.2
20260504025007 3 356 0.0 0.0 0.00 0.00 0.00 71 1011.2
20260504024501 3 356 0.0 0.0 0.00 0.00 0.00 71 1011.2
20260504023955 3 356 0.0 0.0 0.00 0.00 0.00 71 1011.2
20260504023449 3 356 0.0 0.0 0.00 0.00 0.00 70 1011.2
20260504022943 4 356 0.0 0.0 0.00 0.00 0.00 70 1011.2
20260504022437 4 356 0.0 0.0 0.00 0.00 0.00 69 1011.2
20260504021931 4 356 0.0 0.0 0.00 0.00 0.00 69 1011.1
20260504021425 4 356 0.0 0.0 0.00 0.00 0.00 68 1011.1
20260504020919 5 356 0.0 0.0 0.00 0.00 0.00 68 1011.0
20260504020413 5 356 0.0 0.0 0.00 0.00 0.00 67 1011.0
20260504015907 5 356 0.0 0.0 0.00 0.00 0.00 67 1011.0
20260504015401 5 356 0.0 0.0 0.00 0.00 0.00 66 1011.0
20260504014855 5 356 0.0 0.0 0.00 0.00 0.00 65 1011.0
20260504014349 5 356 0.0 0.0 0.00 0.00 0.00 64 1010.9
20260504013843 6 356 0.0 0.0 0.00 0.00 0.00 64 1010.8
20260504013337 6 356 0.0 0.0 0.00 0.00 0.00 63 1010.8
20260504012831 6 356 0.0 0.0 0.00 0.00 0.00 63 1010.7
20260504012325 6 356 0.0 0.0 0.00 0.00 0.00 62 1010.7
20260504011819 6 356 0.0 0.0 0.00 0.00 0.00 61 1010.6
20260504011313 6 356 0.0 0.0 0.00 0.00 0.00 59 1010.5
20260504010807 7 356 0.0 0.0 0.00 0.00 0.00 57 1010.4
20260504010301 7 356 0.0 0.0 0.00 0.00 0.00 57 1010.3
20260504005755 7 356 0.0 0.0 0.00 0.00 0.00 56 1010.3
20260504005249 7 356 0.0 0.0 0.00 0.00 0.00 55 1010.2
20260504004743 7 356 0.0 0.0 0.00 0.00 0.00 55 1010.1
20260504004237 7 356 0.0 0.0 0.00 0.00 0.00 53 1010.1
20260504003731 7 356 0.0 0.0 0.00 0.00 0.00 53 1010.0
20260504003225 8 356 0.0 0.0 0.00 0.00 0.00 52 1009.9
20260504002719 8 356 0.0 0.0 0.00 0.00 0.00 51 1009.9
20260504002213 8 356 0.0 0.0 0.00 0.00 0.00 51 1009.9
20260504001707 8 356 0.0 0.0 0.00 0.00 0.00 50 1009.8
20260504001201 8 356 0.0 0.0 0.00 0.00 0.00 48 1009.7
20260504000655 9 356 0.0 0.0 0.00 0.00 0.00 49 1009.6
20260504000149 9 356 0.0 0.0 0.00 0.00 0.00 48 1009.5
20260503235643 10 356 0.0 0.0 0.00 0.00 0.00 48 1009.5
20260503235137 10 356 0.0 0.0 0.00 0.00 0.00 46 1009.5
20260503234631 10 356 0.0 0.0 0.00 0.00 0.00 46 1009.4
20260503234125 10 356 0.0 0.0 0.00 0.00 0.00 45 1009.3
20260503233619 10 356 0.0 0.0 0.00 0.00 0.00 44 1009.3
20260503233113 10 356 0.0 0.0 0.00 0.00 0.00 45 1009.2
20260503232607 10 356 0.0 0.0 0.00 0.00 0.00 44 1009.2
20260503232101 11 356 0.0 0.0 0.00 0.00 0.00 45 1009.2
20260503231555 11 356 0.0 0.0 0.00 0.00 0.00 44 1009.1
20260503231049 11 41 0.0 0.0 0.00 0.00 0.00 44 1009.0
20260503230543 11 163 0.0 0.0 0.00 0.00 0.00 41 1009.0
20260503230037 11 156 0.0 0.0 0.00 0.00 0.00 41 1008.9
20260503225531 11 216 0.0 0.0 0.00 0.00 0.00 40 1008.8
20260503225025 11 180 1.6 0.0 0.00 0.00 0.00 39 1008.7
20260503224519 11 143 0.0 0.0 0.00 0.00 0.00 41 1008.6
20260503224013 11 221 1.6 0.0 0.00 0.00 0.00 40 1008.5
20260503223507 11 108 0.0 0.0 0.00 0.00 0.00 40 1008.5
20260503223001 11 0 0.0 0.0 0.00 0.00 0.00 43 1008.5
20260503222455 11 299 0.0 0.0 0.00 0.00 0.00 41 1008.4
20260503221949 11 179 0.0 0.0 0.00 0.00 0.00 40 1008.4
20260503221443 11 190 1.6 0.0 0.00 0.00 0.00 41 1008.3
20260503220937 11 15 0.0 0.0 0.00 0.00 0.00 40 1008.2
20260503220431 11 129 0.0 0.0 0.00 0.00 0.00 44 1008.2
20260503215925 12 95 0.0 0.0 0.00 0.00 0.00 42 1008.1
20260503215419 12 235 1.6 0.0 0.00 0.00 0.00 39 1008.0
20260503214913 12 106 0.0 0.0 0.00 0.00 0.00 40 1008.0
20260503214407 12 179 0.0 0.0 0.00 0.00 0.00 40 1007.9
20260503213901 12 93 1.6 0.0 0.00 0.00 0.00 39 1007.8
20260503213355 12 61 1.6 0.0 0.00 0.00 0.00 42 1007.7
20260503212849 12 145 0.0 0.0 0.00 0.00 0.00 42 1007.7
20260503212343 12 80 0.0 0.0 0.00 0.00 0.00 42 1007.5
20260503211837 12 187 0.0 0.0 0.00 0.00 0.00 42 1007.5
20260503211331 12 274 0.0 0.0 0.00 0.00 0.00 42 1007.4
20260503210825 12 47 0.0 0.0 0.00 0.00 0.00 42 1007.3
20260503210319 12 83 0.0 0.0 0.00 0.00 0.00 41 1007.2
20260503205813 12 75 0.0 0.0 0.00 0.00 0.00 42 1007.1
20260503205307 12 209 0.0 0.0 0.00 0.00 0.00 39 1007.0
20260503204801 12 123 1.6 0.0 0.00 0.00 0.00 39 1006.9
20260503204255 12 26 0.0 0.0 0.00 0.00 0.00 42 1006.7
20260503203749 12 178 3.2 0.0 0.00 0.00 0.00 38 1006.9
20260503203243 12 81 0.0 0.0 0.00 0.00 0.00 42 1006.8
20260503202737 12 148 0.0 0.0 0.00 0.00 0.00 42 1006.8
20260503202231 12 234 3.2 0.0 0.00 0.00 0.00 40 1006.8
20260503201725 12 236 3.2 0.0 0.00 0.00 0.00 41 1006.7
20260503201219 12 172 0.0 0.0 0.00 0.00 0.00 44 1006.8
20260503200713 12 352 0.0 0.0 0.00 0.00 0.00 42 1006.7
20260503200207 12 162 0.0 0.0 0.00 0.00 0.00 45 1006.8
20260503195701 12 1 1.6 0.0 0.00 0.00 0.00 45 1006.7
20260503195155 12 241 1.6 0.0 0.00 0.00 0.00 43 1006.7
20260503194649 12 120 1.6 0.0 0.00 0.00 0.00 41 1006.7
20260503194143 12 132 1.6 0.0 0.00 0.00 0.00 42 1006.7
20260503193637 12 208 0.0 0.0 0.00 0.00 0.00 43 1006.8
20260503193131 12 169 0.0 0.0 0.00 0.00 0.00 44 1006.9
20260503192625 12 195 1.6 0.0 0.00 0.00 0.00 42 1006.8
20260503192119 12 159 1.6 0.0 0.00 0.00 0.00 43 1006.8
20260503191613 12 130 0.0 0.0 0.00 0.00 0.00 46 1006.7
20260503191107 12 342 0.0 0.0 0.00 0.00 0.00 43 1006.8
20260503190601 12 171 1.6 0.0 0.00 0.00 0.00 46 1006.8
20260503190055 11 98 0.0 0.0 0.00 0.00 0.00 48 1006.9
20260503185549 11 32 0.0 0.0 0.00 0.00 0.00 47 1007.0
20260503185043 11 9 0.0 0.0 0.00 0.00 0.00 47 1006.9
20260503184537 11 12 0.0 0.0 0.00 0.00 0.00 47 1006.9
20260503184031 11 28 0.0 0.0 0.00 0.00 0.00 46 1007.0
20260503183525 12 57 0.0 0.0 0.00 0.00 0.00 49 1006.9
20260503183019 12 57 0.0 0.0 0.00 0.00 0.00 47 1006.9
20260503182513 12 19 1.6 0.0 0.00 0.00 0.00 47 1006.7
20260503182007 12 21 1.6 0.0 0.00 0.00 0.00 49 1006.8
20260503181501 11 13 1.6 0.0 0.00 0.00 0.00 48 1006.8
20260503180955 11 355 1.6 0.0 0.00 0.00 0.00 52 1006.9
20260503180449 11 259 1.6 0.0 0.00 0.00 0.00 50 1006.9
20260503175943 11 102 0.0 0.0 0.00 0.00 0.00 53 1007.1
20260503175437 11 200 1.6 0.0 0.00 0.00 0.00 52 1007.1
20260503174931 11 245 0.0 0.0 0.00 0.00 0.00 53 1007.0
20260503174425 11 223 1.6 0.0 0.00 0.00 0.00 50 1007.0
20260503173919 11 249 0.0 0.0 0.00 0.00 0.00 52 1007.0
20260503173413 11 252 0.0 0.0 0.00 0.00 0.00 52 1006.9
20260503172907 11 109 1.6 0.0 0.00 0.00 0.00 51 1006.9
20260503172401 11 142 1.6 0.0 0.00 0.00 0.00 50 1006.9
20260503171855 11 188 0.0 0.0 0.00 0.00 0.00 53 1006.9
20260503171349 11 46 0.0 0.0 0.00 0.00 0.00 50 1006.9
20260503170843 11 8 3.2 0.0 0.00 0.00 0.00 53 1007.0
20260503170337 11 16 1.6 0.0 0.00 0.00 0.00 55 1007.0
20260503150619 7 43 1.6 0.0 0.00 0.00 0.00 85 1007.3
20260503150113 7 0 0.0 0.0 0.00 0.00 0.00 88 1007.2
20260503131407 8 338 0.0 0.0 0.00 0.00 0.00 73 1007.2
20260503130901 8 321 0.0 0.0 0.00 0.00 0.00 74 1007.2
20260503130355 8 349 0.0 0.0 0.00 0.00 0.00 74 1007.2
20260503110637 6 191 0.0 0.0 0.00 0.00 0.00 81 1008.1
20260503110131 6 191 0.0 0.0 0.00 0.00 0.00 82 1008.2
20260503090414 6 188 0.0 0.0 0.00 0.00 0.00 79 1008.3
20260503081314 7 188 0.0 0.0 0.00 0.00 0.00 78 1008.5
20260503080808 7 188 0.0 0.0 0.00 0.00 0.00 79 1008.7
20260503080302 7 188 0.0 0.0 0.00 0.00 0.00 79 1008.7
20260503072720 7 188 0.0 0.0 0.00 0.00 0.00 79 1009.0
20260503072214 7 188 0.0 0.0 0.00 0.00 0.00 78 1009.3
20260503071708 7 188 0.0 0.0 0.00 0.00 0.00 78 1009.2
20260503071202 7 188 0.0 0.0 0.00 0.00 0.00 77 1009.1
20260503070656 7 188 0.0 0.0 0.00 0.00 0.00 77 1009.4
20260503070150 7 188 0.0 0.0 0.00 0.00 0.00 76 1009.4
20260503055026 8 188 0.0 0.0 0.00 0.00 0.00 75 1010.1
20260503054520 8 188 0.0 0.0 0.00 0.00 0.00 76 1010.4
20260503054014 8 188 0.0 0.0 0.00 0.00 0.00 77 1010.4
20260503053508 8 188 0.0 0.0 0.00 0.00 0.00 78 1010.4